TIANMU-1 19 (58660 NORAD) Tracking and Keplerian Element Data

This shows tracking and keplerian element data for the satellite.

Feedback or suggestion? Click here.




ElementValue
Catalog58660
NameTIANMU-1 19
Epoch Orbit256
Epoch Day13.18463461
Epoch Year2024
RAAN129.8613
Inclination97.4008
Eccentricity0.0010955
Argument of Perigee190.1396
Mean Anonmoly169.9616
Mean Motion15.13825943
Decay Rate0.0001451
L11 58660U 23208A 24013.18463461 .00014510 00000+0 80464-3 0 9998
L22 58660 97.4008 129.8613 0010955 190.1396 169.9616 15.13825943 2566



Live tracking and technical data element details for TIANMU-1 19 (NORAD 58660). TIANMU-1 19 can be tracked NOW for your location showing map with azimuth and elevation plus other details from your city location.







IsCatalogInMostPopularTable: catalog: 58660, numindb: 19
Update: records affected: 1



GetName: 58660 TIANMU-1 19

Hit Count: updated at: Wed, 17 Apr 2024 02:22:08 GMT